www.pogodaiklimat.ru

Погода и климат >> Архив погоды >> Таиланд >> Косумпхисаи


ПОГОДА в Косумпхисаи

  • Прогноз погоды в Косумпхисаи
  • Монитор погоды в Косумпхисаи

АРХИВ ПОГОДЫ в Косумпхисаи

Время (UTC), дата Ветер
(напр.,м/с)
 
Видим.   Явления Облачность Т
(С)
Тd
(С)
f
(%)
Тe
(С)
Тes
(С)
Комфортность P
(гПа)
Po
(гПа)
Тmin
(С)
Tmax
(С)
R
(мм)
R24
(мм)
S
(см)
12 11.08 ЮЗ 6 12 км 10/5 600 м
[Sc Cs]
+28.5 +25.8 85 +42 +42 опасность
перегрева
1002.4 985.1 +34.8
15 11.08 ЮЗ 8 10 км 10/5 600 м
[Sc Cs]
+27.5 +23.9 81 +38 +38 очень
душно
1005.1 987.7
18 11.08 ЮЗ 6 10 км 8/5 600 м
[Sc Cs]
+26.5 +23.6 84 +36 +36 очень
душно
1003.2 985.8
21 11.08 штиль 0 10 км 8/5 600 м
[Sc Cs]
+25.5 +23.3 88 +34 +34 очень
душно
1003.5 986.0
00 12.08 штиль 0 10 км 8/5 600 м
[Sc Cs]
+26.0 +23.8 88 +36 +37 очень
душно
1005.6 988.0 +25.5
03 12.08 ЮЗ 6 10 км 10/6 600 м
[Cu Sc As op]
+28.8 +25.2 81 +42 +42 опасность
перегрева
1007.7 990.3
06 12.08 штиль 0 10 км 10/6 600 м
[Cu Sc As trans]
+31.3 +25.2 70 +45 +50 опасность
перегрева
1005.7 988.5
09 12.08 штиль 0 10 км 6/5 600 м
[Cu med, cong Cs]
+33.6 +25.5 63 +48 +53 опасность
перегрева
1003.8 986.7
12 12.08 штиль 0 10 км 9/5 600 м
[Sc Cs]
+30.8 +25.4 73 +45 +45 опасность
перегрева
1004.7 987.4 +34.0
15 12.08 штиль 0 10 км 10/6 600 м
[Sc As op]
+29.0 +25.9 83 +43 +43 опасность
перегрева
1007.3 989.9
18 12.08 штиль 0 10 км 10/5 600 м
[Sc As op]
+28.4 +24.4 79 +40 +40 очень
душно
1007.0 989.6
21 12.08 штиль 0 10 км 10/5 600 м
[Sc As op]
+27.4 +24.8 86 +39 +39 очень
душно
1006.4 988.9
00 13.08 штиль 0 10 км слаб. дождь 10/5 600 м
[Sc Ac As]
+27.0 +25.6 92 +40 +40 очень
душно
1008.0 990.5 +26.3 0.1
03 13.08 ЮЗ 5 10 км слаб. дождь 10/3 600 м
[Sc As op]
+28.5 +25.7 85 +42 +44 опасность
перегрева
1009.1 991.7 0.0
06 13.08 З 8 10 км слаб. дождь 10/3 600 м
[Sc As op]
+30.5 +26.3 78 +46 +47 опасность
перегрева
1007.8 990.5 0.2
09 13.08 З 8 10 км {дождь} 10/3 600 м
[Cu Sc As op]
+30.5 +24.8 72 +44 +44 опасность
перегрева
1005.7 988.4 0.0
12 13.08 ЮЗ 5 8000 м дымка {дождь} 10/3 600 м
[Sc As op]
+28.3 +23.5 75 +38 +38 очень
душно
1006.4 989.0 +31.3 0.2
15 13.08 ЮЗ 5 7000 м дымка 10/10 600 м
[Cu Sc]
+27.5 +23.9 81 +38 +38 очень
душно
1006.8 989.3
18 13.08 ЮЗ 3 7000 м 10/5 600 м
[Sc As op]
+27.0 +24.1 84 +37 +37 очень
душно
1006.4 988.9
21 13.08 штиль 0 7000 м дымка 10/3 600 м
[Sc As op]
+26.3 +22.9 82 +35 +35 очень
душно
1005.5 988.0
00 14.08 ЮЗ 8 8000 м дымка 10/3 600 м
[Cu Sc As op]
+26.5 +24.3 88 +37 +37 очень
душно
1006.9 989.4 +25.7
03 14.08 ЮЗ 8 12 км 10/6 600 м
[Sc Ac As Cs]
+30.0 +25.0 75 +43 +44 опасность
перегрева
1008.5 991.1
06 14.08 штиль 0 12 км 10/5 600 м
[Sc Cs]
+32.5 +24.7 64 +46 +57 опасность
перегрева
1006.8 989.6
09 14.08 ЮЗ 6 12 км 8/3 600 м
[Cu med, cong Cs]
+32.0 +24.8 66 +45 +47 опасность
перегрева
1003.9 986.7
12 14.08 ЮЗ 6 10 км 8/6 600 м
[Cb cap Ci ing]
+30.0 +23.6 69 +41 +41 опасность
перегрева
1004.3 987.0 +33.3
15 14.08 штиль 0 2000 м гроза, ливневой дождь 10/5 600 м
[Cb cap As op]
+26.5 +24.3 88 +37 +37 очень
душно
1007.0 989.5 32
18 14.08 штиль 0 10 км {гроза} 10/6 600 м
[Sc As op]
+26.0 +24.6 92 +37 +37 очень
душно
1005.7 988.1 2
21 14.08 штиль 0 10 км 10/5 600 м
[Sc Ac As]
+26.0 +24.6 92 +37 +37 очень
душно
1006.0 988.4
00 15.08 штиль 0 10 км 10/3 600 м
[Cu med, cong As op]
+26.0 +24.6 92 +37 +38 очень
душно
1006.5 989.0 +25.0
03 15.08 Ю 5 12 км 3/3 600 м
[Cu med, cong Ac trans]
+30.5 +24.8 72 +44 +50 опасность
перегрева
1006.6 989.4
06 15.08 ЮЗ 7 12 км 3/1 600 м
[Cu med, cong Cs]
+34.5 +23.8 54 +46 +51 опасность
перегрева
1004.3 987.2
09 15.08 Ю 7 12 км 8/3 600 м
[Cu Sc As op]
+33.5 +23.4 56 +44 +45 опасность
перегрева
1001.5 984.5
12 15.08 ЮЗ 6 8000 м зарница 10/1 300 м
[Cb cap As op]
+30.6 +22.4 62 +40 +40 очень
душно
1001.7 984.5 +35.7
15 15.08 ЮЗ 6 4000 м дымка {гроза} 10/5 600 м
[Sc Ac As]
+27.0 +25.6 92 +40 +40 очень
душно
1003.7 986.3 6
18 15.08 ЮЗ 3 7000 м дымка {гроза} 10/4 600 м
[Sc As op]
+27.0 +24.1 84 +37 +37 очень
душно
1002.8 985.3 6
21 15.08 Ю 3 8000 м дымка 10/3 600 м
[Sc As op]
+27.0 +24.1 84 +37 +37 очень
душно
1002.5 985.1
00 16.08 ЮЗ 6 10 км 10/3 600 м
[Cu med, cong As op Cs]
+27.0 +24.1 84 +37 +38 очень
душно
1003.7 986.3 +25.7
03 16.08 Ю 7 10 км 10/5 600 м
[Sc As op]
+30.5 +25.6 75 +45 +45 опасность
перегрева
1006.3 989.0
06 16.08 ЮЗ 3 10 км 10/3 600 м
[Cu med, cong Cs]
+33.8 +25.7 63 +49 +59 опасность
перегрева
1004.4 987.3
09 16.08 ЮЗ 3 10 км 8/3 600 м
[Cu hum Cs]
+34.7 +23.7 53 +46 +49 опасность
перегрева
1001.8 984.8
12 16.08 штиль 0 10 км 10/4 600 м
[Sc As op]
+31.0 +25.4 72 +45 +45 опасность
перегрева
1003.2 986.0 +35.4
15 16.08 штиль 0 10 км 10/5 600 м
[Sc As op]
+28.5 +24.9 81 +41 +41 опасность
перегрева
1006.0 988.6
18 16.08 штиль 0 10 км 10/5 600 м
[Sc As op]
+28.0 +25.1 84 +40 +40 очень
душно
1005.7 988.3
21 16.08 Ю 3 10 км 10/5 600 м
[Sc As op]
+27.3 +25.0 87 +39 +39 очень
душно
1005.9 988.5
00 17.08 штиль 0 10 км 10/5 600 м
[Sc As op]
+27.5 +24.6 84 +39 +39 очень
душно
1006.4 989.0 +26.5
03 17.08 Ю 4 10 км 10/4 600 м
[Cu med, cong As op]
+31.0 +25.0 70 +44 +46 опасность
перегрева
1007.9 990.6
06 17.08 Ю 4 10 км 10/5 600 м
[Cu Sc As op]
+34.0 +24.3 57 +46 +48 опасность
перегрева
1005.6 988.6
09 17.08 ЮВ 2 10 км 10/5 600 м
[Cu Sc As op]
+29.2 +24.9 78 +42 +43 опасность
перегрева
1004.6 987.3
12 17.08 Ю 4 10 км зарница 10/6 300 м
[Cb cap As op]
+27.5 +24.6 84 +39 +39 очень
душно
1006.4 988.9 +35.0
15 17.08 ЮЗ 2 10 км слаб. дождь 10/6 600 м
[Sc Ac As]
+26.0 +24.8 93 +37 +37 очень
душно
1008.5 990.9 0.6
18 17.08 штиль 0 10 км {дождь} 10/0
[Ac trans Cs]
+25.6 +24.7 95 +36 +36 очень
душно
1008.9 991.3 0.1
21 17.08 штиль 0 10 км 10/4 600 м
[Sc Ac trans Cs]
+25.6 +24.7 95 +36 +36 очень
душно
1008.5 990.9
00 18.08 штиль 0 10 км 10/3 600 м
[Sc Cs]
+26.0 +24.7 93 +37 +38 очень
душно
1010.2 992.6 +25.0
03 18.08 ЮЗ 4 10 км 8/1 600 м
[Cu hum Ac trans Cs]
+30.0 +25.0 75 +43 +49 опасность
перегрева
1010.4 993.0
06 18.08 штиль 0 10 км 8/4 50 м
[Cu med, cong Cs]
+35.5 +24.2 52 +47 +53 опасность
перегрева
1008.4 991.4
09 18.08 ЮЗ 4 10 км 8/4 600 м
[Cu med, cong Cs]
+34.5 +24.4 56 +47 +49 опасность
перегрева
1006.0 988.9

 

Местоположение метеостанции Косумпхисаи (Таиланд): широта 16.23 долгота 103.06 высота над уровнем моря 154 м.

В архиве по умолчанию представлена погода в Косумпхисаи за последнюю неделю. Архивные данные за месяц целиком и за предыдущие месяцы, начиная с января 2011 года, Вы можете получить, выбрав интересующий диапазон дат из раскрывающегося списка и нажав кнопку "Ввод!".


*Определитесь, кто Вы:
робот инопланетянин человек

Внимание! Время в таблицах - всемирное. Для получения местного времени необходимо прибавить поправку, которая равна 7 ч.

Смотрите также архив погоды в соседних городах и на ближайших метеорологических станциях:

Погода в Тха Пхра Агромете (Таиланд) (28 км)
Погода в Кхонкэне (Таиланд) (33 км)
Погода в Камаласаи (Таиланд) (57 км)
Погода в Рой Эт Агромете (Таиланд) (62 км)
Погода в Рой Эт (Таиланд) (69 км)
Погода в Бури-Рам (Таиланд) (113 км)
Погода в Чайяпхуме (Таиланд) (120 км)
Погода в Тха Тум (Таиланд) (121 км)
Погода в Нонгбуалампху (Таиланд) (130 км)
Погода в Удонтхани (Таиланд) (131 км)

Пояснения к столбцам:

Ветер - указаны скорость ветра в м/с - средняя за 10 мин, порывы в срок и между сроками (в фигурных скобках) и направление, откуда дует ветер: С - северный, СВ - северо-восточный, В - восточный, ЮВ - юго-восточный, Ю - южный, ЮЗ - юго-западный, З - западный, СЗ - северо-западный.
Видимость - горизонтальная дальность видимости в метрах или километрах. При видимости от 1 до 10 км при отсутствии осадков обычно наблюдается дымка, при ухудшении видимости до 1 км и менее - туман. В сухую погоду видимость может ухудшаться дымом, пылью или мглою.
Явления - указаны атмосферные явления, наблюдавшиеся в срок или в последний час перед сроком; фигурными скобками обозначены явления, наблюдавшиеся между сроками (за 1-3 часа до срока); квадратными скобками обозначены град или гололедные отложения с указанием их диаметра в мм.
Облачность - указаны через наклонную черту общая и нижняя облачность в баллах и высота нижней границы облаков в метрах; квадратными скобками обозначены формы облаков: Ci - перистые, Cs - перисто-слоистые, Cc - перисто-кучевые, Ac - высококучевые, As - высокослоистые, Sc - слоисто-кучевые, Ns - слоисто-дождевые, Cu - кучевые, Cb - кучево-дождевые. Подробнее классификацию облаков см. в Атласе облаков (PDF).
T - Температура воздуха - температура, измеренная на высоте 2 м над землей.
Td - Температура точки росы - температура, при понижении до которой содержащийся в воздухе водяной пар достигнет насыщения.
f - Относительная влажность воздуха - влажноcть воздуха, измеренная на высоте 2 м над землей.
Te - Эффективная температура - температура, которую ощущает одетый по сезону человек в тени. Характеристика душности погоды. При расчете учитывается влияние влажности воздуха и скорости ветра на теплоощущения человека.
Tes - Эффективная температура на солнце - температура, которую ощущает человек, с поправкой на солнечный нагрев. Характеристика знойности погоды. Зависит от высоты солнца над горизонтом, облачности и скорости ветра. Ночью, в пасмурную погоду, а также при ветре 12 м/с и более поправка равна нулю.
P - Атмосферное давление - приведенное к уровню моря атмосферное давление.
Po - Атмосферное давление - измеренное на уровне метеостанции атмосферное давление.
Tmin - Минимальная температура - минимум температуры воздуха на высоте 2 м над землей.
Tmax - Максимальная температура - максимум температуры воздуха на высоте 2 м над землей.
R - Количество осадков - Количество выпавших осадков за период времени, мм. При наведении курсора мыши на число - период времени, за который выпало указанное количество осадков.
R24 - Количество осадков - Количество выпавших осадков за 24 часа, мм.
S - Снежный покров - Высота снежного покрова, см. При наведении курсора мыши на число - состояние снежного покрова и степень покрытия местности в баллах.